星链-11186 [DTC] (STARLINK-11186 [DTC] )

导读 | 星芒AI

STARLINK-11186 [DTC] 是美国太空探索技术公司(SpaceX)星链(Starlink)卫星互联网项目中的一颗低轨通信卫星。该卫星属于星链计划的第二代星座部署,旨在为全球用户提供高速、低延迟的宽带互联网服务。它由SpaceX研发并发射,运行在约550公里高的近地轨道,采用先进通信技术,支持大规模卫星网络的组网与数据传输。该计划致力于改善偏远地区网络覆盖,推动全球互联网普及。

基本信息
目录编号:
60070
目录名称:
STARLINK-11186
国际标识:
2024-113M
轨道中心:
EARTH
卫星名称:
星链-11186 [DTC]
卫星全名:
星链-11186 [DTC] (STARLINK-11186 [DTC] )
卫星状态:
在轨 (已飞行544 天)
发射日期:
2024-06-19 UTC
国别 :
美国 (US)
星等 :
--
轨道信息
数据来源 国际轨道数据
星历时间: 2025-12-15T06:03:08+0800
21小时前
查看轨道信息
半长轴: 6737.916km
偏心率: 0.0000993
轨道倾角: 53.159°
近地点辐角 80.292°
升交点赤经 249.342°
平近点角 279.821°
近地点: 359.111km
远地点: 360.451km
周期: 91.738分钟
每日圈数: 15.69692
详细信息
固有亮度:
5
最大亮度:
0.3
卫星平台:
Starlink v2.0 mini
覆盖范围:
全球
运营商:
太空探索技术公司
运营商所在国:
美国
制造商(研发单位):
太空探索技术公司
制造商所在国:
美国
使用方式:
暂无
卫星简介
星链(Starlink)计划是由太空探索技术公司(SpaceX)提出的一个巨型低轨卫星互联网星座项目,计划在2019年至2024年间在太空搭建由约1.2万颗卫星组成的“星链”网络,其中1584颗将部署在地球上空550千米处的近地轨道,并从2020年开始工作。该卫星仍在工作。
2D轨道图
3D轨道图
轨道高度分析图
轨道倾角分析图
轨道综合分析图
查看轨道综合分析图